Time,TemperatureF,DewpointF,PressureIn,WindDirection,WindDirectionDegrees,WindSpeedMPH,WindSpeedGustMPH,Humidity,HourlyPrecipIn,Conditions,Clouds,dailyrainin,SoftwareType,DateUTC
2013-06-08 00:02:00,78.0,25.0,-100.00,WSW,239,1.0,7.0,14,-99.99,,,-99.99,,2013-06-08 07:02:00,
2013-06-08 00:22:00,77.0,26.0,-100.00,WNW,295,3.0,9.0,15,-99.99,,,-99.99,,2013-06-08 07:22:00,
2013-06-08 00:42:00,72.0,26.0,-100.00,NNW,330,4.0,15.0,18,-99.99,,,-99.99,,2013-06-08 07:42:00,
2013-06-08 00:52:00,72.0,26.0,-100.00,NNW,330,4.0,15.0,18,-99.99,,,-99.99,,2013-06-08 07:52:00,
2013-06-08 01:02:00,75.0,23.0,-100.00,NW,311,3.0,6.0,14,-99.99,,,-99.99,,2013-06-08 08:02:00,
2013-06-08 05:22:00,72.0,32.0,-100.00,NW,304,3.0,5.0,23,-99.99,,,-99.99,,2013-06-08 12:22:00,
2013-06-08 05:42:00,72.0,34.0,-100.00,WNW,301,3.0,5.0,25,-99.99,,,-99.99,,2013-06-08 12:42:00,
2013-06-08 05:52:00,72.0,34.0,-100.00,WNW,301,3.0,5.0,25,-99.99,,,-99.99,,2013-06-08 12:52:00,
2013-06-08 06:02:00,63.0,33.0,-100.00,ENE,65,1.0,7.0,32,-99.99,,,-99.99,,2013-06-08 13:02:00,
2013-06-08 06:12:00,63.0,33.0,-100.00,ENE,65,1.0,7.0,32,-99.99,,,-99.99,,2013-06-08 13:12:00,
2013-06-08 06:22:00,63.0,33.0,-100.00,NNW,337,2.0,5.0,32,-99.99,,,-99.99,,2013-06-08 13:22:00,
2013-06-08 06:32:00,66.0,35.0,-100.00,NNW,335,0.0,6.0,32,-99.99,,,-99.99,,2013-06-08 13:32:00,
2013-06-08 06:42:00,66.0,35.0,-100.00,NNW,335,0.0,6.0,32,-99.99,,,-99.99,,2013-06-08 13:42:00,
2013-06-08 06:52:00,68.0,35.0,-100.00,NNE,25,0.0,4.0,30,-99.99,,,-99.99,,2013-06-08 13:52:00,
2013-06-08 07:02:00,68.0,35.0,-100.00,NNE,25,0.0,4.0,30,-99.99,,,-99.99,,2013-06-08 14:02:00,
2013-06-08 07:42:00,71.0,36.0,-100.00,ESE,109,1.0,5.0,28,-99.99,,,-99.99,,2013-06-08 14:42:00,
2013-06-08 07:52:00,71.0,37.0,-100.00,East,100,0.0,3.0,29,-99.99,,,-99.99,,2013-06-08 14:52:00,
2013-06-08 08:02:00,71.0,37.0,-100.00,East,100,0.0,3.0,29,-99.99,,,-99.99,,2013-06-08 15:02:00,
2013-06-08 08:12:00,71.0,36.0,-100.00,ESE,109,1.0,5.0,28,-99.99,,,-99.99,,2013-06-08 15:12:00,
2013-06-08 08:22:00,71.0,36.0,-100.00,ESE,109,1.0,5.0,28,-99.99,,,-99.99,,2013-06-08 15:22:00,
2013-06-08 08:32:00,71.0,36.0,-100.00,ESE,109,1.0,5.0,28,-99.99,,,-99.99,,2013-06-08 15:32:00,
2013-06-08 11:02:00,82.0,41.0,-100.00,East,93,4.0,10.0,23,-99.99,,,-99.99,,2013-06-08 18:02:00,
2013-06-08 11:12:00,82.0,41.0,-100.00,East,93,4.0,10.0,23,-99.99,,,-99.99,,2013-06-08 18:12:00,
2013-06-08 11:22:00,82.0,41.0,-100.00,East,93,4.0,10.0,23,-99.99,,,-99.99,,2013-06-08 18:22:00,
2013-06-08 11:32:00,82.0,41.0,-100.00,East,93,4.0,10.0,23,-99.99,,,-99.99,,2013-06-08 18:32:00,
2013-06-08 11:52:00,84.0,39.0,-100.00,East,83,3.0,8.0,20,-99.99,,,-99.99,,2013-06-08 18:52:00,
2013-06-08 12:02:00,84.0,39.0,-100.00,East,83,3.0,8.0,20,-99.99,,,-99.99,,2013-06-08 19:02:00,
2013-06-08 12:12:00,85.0,38.0,-100.00,ESE,104,3.0,9.0,19,-99.99,,,-99.99,,2013-06-08 19:12:00,
2013-06-08 12:22:00,85.0,38.0,-100.00,ESE,104,3.0,9.0,19,-99.99,,,-99.99,,2013-06-08 19:22:00,
2013-06-08 12:32:00,86.0,38.0,-100.00,East,82,4.0,10.0,18,-99.99,,,-99.99,,2013-06-08 19:32:00,
2013-06-08 12:42:00,86.0,38.0,-100.00,East,82,4.0,10.0,18,-99.99,,,-99.99,,2013-06-08 19:42:00,
2013-06-08 12:53:00,85.0,37.0,-100.00,ESE,106,3.0,10.0,18,-99.99,,,-99.99,,2013-06-08 19:53:00,
2013-06-08 13:02:00,85.0,37.0,-100.00,ESE,106,3.0,10.0,18,-99.99,,,-99.99,,2013-06-08 20:02:00,
2013-06-08 13:12:00,86.0,36.0,-100.00,ENE,76,4.0,11.0,17,-99.99,,,-99.99,,2013-06-08 20:12:00,
2013-06-08 13:22:00,86.0,36.0,-100.00,ENE,76,4.0,11.0,17,-99.99,,,-99.99,,2013-06-08 20:22:00,
2013-06-08 13:52:00,90.0,38.0,-100.00,ENE,64,4.0,10.0,16,-99.99,,,-99.99,,2013-06-08 20:52:00,
2013-06-08 14:02:00,90.0,38.0,-100.00,ENE,64,4.0,10.0,16,-99.99,,,-99.99,,2013-06-08 21:02:00,
2013-06-08 14:12:00,87.0,34.0,-100.00,East,100,5.0,10.0,15,-99.99,,,-99.99,,2013-06-08 21:12:00,
2013-06-08 14:22:00,87.0,34.0,-100.00,East,100,5.0,10.0,15,-99.99,,,-99.99,,2013-06-08 21:22:00,